DW7013 Weather Reports


time (UTC)temp
C
wind
direction
speed
KPH
gust
KPH
rain 1hr
cm
rain 24hr
cm
rain mn
cm
humidity
%
barometer
mb
20260903121721 23 181 8.0 19.3 0.00 0.00 0.00 42 1024.6
20260903121223 23 179 8.0 22.5 0.00 0.00 0.00 42 1024.7
20260903120722 23 153 6.4 22.5 0.00 0.00 0.00 41 1024.7
20260903120219 23 166 3.2 22.5 0.00 0.00 0.00 41 1024.7
20260903115721 24 161 1.6 16.1 0.00 0.00 0.00 41 1024.8
20260903115221 23 280 4.8 16.1 0.00 0.00 0.00 43 1024.9
20260903114728 23 355 3.2 9.7 0.00 0.00 0.00 42 1024.9
20260903114226 23 5 1.6 8.0 0.00 0.00 0.00 39 1024.7
20260903113223 23 305 1.6 16.1 0.00 0.00 0.00 38 1024.9
20260903112722 23 202 3.2 16.1 0.00 0.00 0.00 36 1024.9
20260903111716 23 302 4.8 24.1 0.00 0.00 0.00 35 1025.3
20260903111213 22 341 8.0 24.1 0.00 0.00 0.00 39 1025.4
20260903110711 22 333 6.4 24.1 0.00 0.00 0.00 40 1025.3
20260903110209 23 306 4.8 17.7 0.00 0.00 0.00 39 1025.2
20260903105713 22 350 4.8 17.7 0.00 0.00 0.00 39 1025.2
20260903105214 22 22 3.2 17.7 0.00 0.00 0.00 37 1025.3
20260903104714 22 286 3.2 17.7 0.00 0.00 0.00 40 1025.3
20260903104217 22 346 3.2 17.7 0.00 0.00 0.00 43 1025.4
20260903103722 22 342 6.4 17.7 0.00 0.00 0.00 43 1025.3
20260903103211 22 342 8.0 20.9 0.00 0.00 0.00 43 1025.4
20260903102725 22 313 8.0 20.9 0.00 0.00 0.00 44 1025.3
20260903102219 22 0 8.0 20.9 0.00 0.00 0.00 45 1025.2
20260903101716 22 321 6.4 19.3 0.00 0.00 0.00 45 1025.2
20260903101215 22 266 8.0 27.4 0.00 0.00 0.00 44 1025.4
20260903100223 22 340 8.0 19.3 0.00 0.00 0.00 42 1025.5
20260903095724 22 329 4.8 11.3 0.00 0.00 0.00 42 1025.4
20260903095207 22 192 1.6 11.3 0.00 0.00 0.00 44 1025.4
20260903094733 22 351 1.6 9.7 0.00 0.00 0.00 48 1025.4
20260903094219 21 130 1.6 12.9 0.00 0.00 0.00 51 1025.4
20260903093205 21 164 3.2 14.5 0.00 0.00 0.00 53 1025.5
20260903092717 21 173 4.8 14.5 0.00 0.00 0.00 52 1025.5
20260903090732 20 165 4.8 16.1 0.00 0.00 0.00 54 1025.5
20260903090219 20 179 3.2 12.9 0.00 0.00 0.00 55 1025.4
20260903085226 20 183 3.2 11.3 0.00 0.00 0.00 55 1025.4
20260903084715 20 137 1.6 9.7 0.00 0.00 0.00 57 1025.5
20260903084208 20 176 1.6 11.3 0.00 0.00 0.00 57 1025.4
20260903083706 19 219 3.2 11.3 0.00 0.00 0.00 59 1025.4
20260903083217 19 165 4.8 12.9 0.00 0.00 0.00 60 1025.3
20260903082725 19 150 4.8 12.9 0.00 0.00 0.00 60 1025.2
20260903081719 18 178 3.2 11.3 0.00 0.00 0.00 61 1025.2
20260903081219 18 175 3.2 9.7 0.00 0.00 0.00 61 1025.4
20260903080715 18 152 1.6 4.8 0.00 0.00 0.00 61 1025.7
20260903075726 18 144 0.0 0.0 0.00 0.00 0.00 62 1025.5
20260903075215 18 134 0.0 0.0 0.00 0.00 0.00 62 1025.5
20260903074720 17 149 0.0 0.0 0.00 0.00 0.00 65 1025.3
20260903074215 17 134 0.0 0.0 0.00 0.00 0.00 64 1025.1
20260903073714 17 179 0.0 0.0 0.00 0.00 0.00 67 1025.1
20260903073229 16 252 0.0 0.0 0.00 0.00 0.00 68 1025.1
20260903072725 16 252 0.0 0.0 0.00 0.00 0.00 69 1025.1
20260903072223 16 202 0.0 0.0 0.00 0.00 0.00 71 1025.1
20260903071707 16 202 0.0 3.2 0.00 0.00 0.00 71 1025.0
20260903071239 16 202 0.0 3.2 0.00 0.00 0.00 72 1025.1
20260903070720 15 202 0.0 3.2 0.00 0.00 0.00 73 1025.1
20260903065722 14 5 0.0 4.8 0.00 0.00 0.00 79 1025.2
20260903065225 13 5 0.0 4.8 0.00 0.00 0.00 79 1025.1
20260903064731 13 5 1.6 4.8 0.00 0.00 0.00 79 1025.2
20260903064223 13 5 1.6 3.2 0.00 0.00 0.00 80 1025.3
20260903063714 12 39 0.0 3.2 0.00 0.00 0.00 81 1025.3
20260903063223 12 79 0.0 3.2 0.00 0.00 0.00 83 1025.2
20260903062221 11 79 1.6 4.8 0.00 0.00 0.00 83 1025.2
20260903061726 11 79 1.6 3.2 0.00 0.00 0.00 83 1025.3
20260903061225 11 79 0.0 1.6 0.00 0.00 0.00 83 1025.3
20260903060727 11 30 0.0 1.6 0.00 0.00 0.00 83 1025.4
20260903055717 11 24 0.0 1.6 0.00 0.00 0.00 82 1025.3
20260903055222 11 24 0.0 1.6 0.00 0.00 0.00 82 1025.2
20260903054214 11 24 0.0 1.6 0.00 0.00 0.00 83 1025.2
20260903053711 11 24 0.0 1.6 0.00 0.00 0.00 83 1025.1
20260903053232 11 151 0.0 1.6 0.00 0.00 0.00 82 1025.2
20260903052715 11 151 0.0 1.6 0.00 0.00 0.00 82 1025.1
20260903052229 11 151 0.0 1.6 0.00 0.00 0.00 82 1025.1
20260903051723 11 151 0.0 3.2 0.00 0.00 0.00 82 1025.0
20260903051241 11 151 0.0 3.2 0.00 0.00 0.00 81 1025.0
20260903050725 11 151 0.0 3.2 0.00 0.00 0.00 81 1025.0
20260903050230 11 151 0.0 3.2 0.00 0.00 0.00 81 1025.0
20260903045713 11 151 0.0 8.0 0.00 0.00 0.00 82 1024.9
20260903044716 11 151 1.6 8.0 0.00 0.00 0.00 82 1024.8
20260903044214 11 327 1.6 3.2 0.00 0.00 0.00 82 1024.8
20260903043723 11 36 0.0 3.2 0.00 0.00 0.00 82 1024.8
20260903043220 11 36 0.0 3.2 0.00 0.00 0.00 82 1024.8
20260903042727 11 27 0.0 3.2 0.00 0.00 0.00 82 1024.8
20260903041724 11 22 1.6 4.8 0.00 0.00 0.00 82 1024.7
20260903041221 11 15 0.0 6.4 0.00 0.00 0.00 82 1024.8
20260903040718 11 26 1.6 6.4 0.00 0.00 0.00 82 1024.7
20260903040225 11 25 1.6 6.4 0.00 0.00 0.00 81 1024.8
20260903035708 11 327 0.0 0.0 0.00 0.00 0.00 81 1024.6
20260903035213 11 157 0.0 3.2 0.00 0.00 0.00 81 1024.6
20260903034722 11 157 0.0 3.2 0.00 0.00 0.00 81 1024.6
20260903033727 12 240 0.0 4.8 0.00 0.00 0.00 81 1024.7
20260903033224 12 250 1.6 6.4 0.00 0.00 0.00 81 1024.7
20260903032226 12 130 1.6 6.4 0.00 0.00 0.00 81 1024.8
20260903031709 12 355 0.0 3.2 0.00 0.00 0.00 81 1024.8
20260903031222 12 117 0.0 1.6 0.00 0.00 0.00 80 1024.7
20260903030720 12 32 0.0 0.0 0.00 0.00 0.00 80 1024.8
20260903030227 12 32 0.0 0.0 0.00 0.00 0.00 80 1024.9
20260903025713 12 32 0.0 0.0 0.00 0.00 0.00 80 1024.8
20260903025227 12 36 0.0 0.0 0.00 0.00 0.00 79 1024.7
20260903024720 12 69 0.0 3.2 0.00 0.00 0.00 79 1024.8
20260903024222 12 69 0.0 4.8 0.00 0.00 0.00 79 1024.7
20260903023719 12 69 1.6 8.0 0.00 0.00 0.00 79 1024.7
20260903022720 12 42 1.6 8.0 0.00 0.00 0.00 79 1024.7
20260903022221 12 0 0.0 1.6 0.00 0.00 0.00 79 1024.7
20260903021718 12 67 0.0 4.8 0.00 0.00 0.00 78 1024.7
20260903021221 13 67 0.0 4.8 0.00 0.00 0.00 78 1024.7
20260903020720 13 67 1.6 4.8 0.00 0.00 0.00 78 1024.7
20260903020246 13 67 0.0 0.0 0.00 0.00 0.00 78 1024.7
20260903015720 13 137 0.0 0.0 0.00 0.00 0.00 78 1024.7
20260903015210 13 229 0.0 0.0 0.00 0.00 0.00 78 1024.7
20260903014722 13 146 0.0 0.0 0.00 0.00 0.00 78 1024.7
20260903014217 13 146 0.0 4.8 0.00 0.00 0.00 78 1024.8
20260903013712 13 86 1.6 4.8 0.00 0.00 0.00 78 1024.8
20260903013221 13 86 1.6 4.8 0.00 0.00 0.00 77 1024.8
20260903012721 13 311 1.6 6.4 0.00 0.00 0.00 78 1024.8
20260903012217 13 59 3.2 8.0 0.00 0.00 0.00 78 1024.8
20260903011710 13 29 3.2 12.9 0.00 0.00 0.00 77 1024.8
20260903010738 13 0 1.6 12.9 0.00 0.00 0.00 77 1024.7
20260903005212 13 5 0.0 0.0 0.00 0.00 0.00 77 1024.7
20260903004716 13 355 0.0 0.0 0.00 0.00 0.00 77 1024.6
20260903004222 13 55 0.0 0.0 0.00 0.00 0.00 77 1024.6
20260903003725 13 55 0.0 0.0 0.00 0.00 0.00 77 1024.5
20260903003231 13 55 0.0 4.8 0.00 0.00 0.00 77 1024.6
20260903002728 13 59 0.0 11.3 0.00 0.00 0.00 77 1024.5
20260903001219 13 5 3.2 6.4 0.00 0.00 0.00 78 1024.5
20260903000722 13 344 1.6 8.0 0.00 0.00 0.00 79 1024.4
20260903000229 13 29 1.6 8.0 0.00 0.00 0.00 79 1024.5
20260902235722 13 11 1.6 8.0 0.00 0.00 0.00 79 1024.5
20260902234216 13 24 0.0 0.0 0.00 0.00 0.00 80 1024.6
20260902233717 13 24 0.0 0.0 0.00 0.00 0.00 79 1024.6
20260902233223 13 0 0.0 0.0 0.00 0.00 0.00 79 1024.6
20260902232715 13 0 0.0 0.0 0.00 0.00 0.00 79 1024.6
20260902232232 13 0 0.0 0.0 0.00 0.00 0.00 79 1024.6
20260902231716 13 0 0.0 0.0 0.00 0.00 0.00 79 1024.6
20260902231225 13 135 0.0 0.0 0.00 0.00 0.00 79 1024.6
20260902230713 13 138 0.0 0.0 0.00 0.00 0.00 78 1024.5
20260902230220 13 138 0.0 0.0 0.00 0.00 0.00 78 1024.5
20260902225723 13 138 0.0 0.0 0.00 0.00 0.00 77 1024.5
20260902224721 13 137 0.0 0.0 0.00 0.00 0.00 77 1024.5
20260902223714 13 355 0.0 0.0 0.00 0.00 0.00 77 1024.5
20260902223225 14 355 0.0 0.0 0.00 0.00 0.00 77 1024.5
20260902222710 14 355 0.0 0.0 0.00 0.00 0.00 77 1024.5
20260902222220 14 355 0.0 9.7 0.00 0.00 0.00 76 1024.6
20260902221731 14 355 0.0 9.7 0.00 0.00 0.00 76 1024.5
20260902221218 14 355 0.0 9.7 0.00 0.00 0.00 76 1024.6
20260902220729 14 5 0.0 0.0 0.00 0.00 0.00 76 1024.6
20260902215717 14 327 0.0 0.0 0.00 0.00 0.00 75 1024.5
20260902215224 14 0 0.0 0.0 0.00 0.00 0.00 75 1024.5
20260902214213 14 0 0.0 0.0 0.00 0.00 0.00 75 1024.5
20260902213210 14 0 0.0 0.0 0.00 0.00 0.00 73 1024.5
20260902211729 15 350 0.0 0.0 0.00 0.00 0.00 73 1024.4
20260902210715 15 350 0.0 0.0 0.00 0.00 0.00 72 1024.5
20260902210222 15 350 0.0 0.0 0.00 0.00 0.00 72 1024.4
20260902205710 15 350 0.0 0.0 0.00 0.00 0.00 72 1024.5
20260902205208 15 350 0.0 0.0 0.00 0.00 0.00 72 1024.4
20260902203718 15 350 0.0 0.0 0.00 0.00 0.00 71 1024.3
20260902202727 15 346 0.0 0.0 0.00 0.00 0.00 69 1024.0
20260902202231 15 355 0.0 0.0 0.00 0.00 0.00 68 1024.0
20260902201716 15 355 0.0 0.0 0.00 0.00 0.00 68 1024.1
20260902201217 16 355 0.0 0.0 0.00 0.00 0.00 68 1024.1
20260902200728 16 355 0.0 0.0 0.00 0.00 0.00 67 1024.1
20260902200241 16 351 0.0 0.0 0.00 0.00 0.00 66 1024.0
20260902195712 16 38 0.0 0.0 0.00 0.00 0.00 66 1024.0
20260902195218 16 328 0.0 0.0 0.00 0.00 0.00 66 1023.9
20260902194710 16 334 0.0 0.0 0.00 0.00 0.00 65 1024.0
20260902193721 16 5 0.0 0.0 0.00 0.00 0.00 65 1023.9
20260902193222 16 0 0.0 0.0 0.00 0.00 0.00 64 1023.9
20260902192730 16 5 0.0 0.0 0.00 0.00 0.00 64 1023.9
20260902192234 16 5 0.0 0.0 0.00 0.00 0.00 64 1023.8
20260902191722 17 5 0.0 0.0 0.00 0.00 0.00 64 1023.8
20260902191214 17 5 0.0 0.0 0.00 0.00 0.00 64 1023.7
20260902190214 17 339 0.0 0.0 0.00 0.00 0.00 64 1023.7
20260902185716 17 26 0.0 0.0 0.00 0.00 0.00 63 1023.6
20260902185225 18 0 0.0 0.0 0.00 0.00 0.00 62 1023.6
20260902184718 18 355 0.0 0.0 0.00 0.00 0.00 62 1023.5
20260902184221 18 74 0.0 0.0 0.00 0.00 0.00 61 1023.4
20260902183728 18 350 0.0 0.0 0.00 0.00 0.00 61 1023.4
20260902183231 19 344 0.0 1.6 0.00 0.00 0.00 61 1023.4
20260902182718 19 345 0.0 8.0 0.00 0.00 0.00 60 1023.4
20260902182223 19 345 0.0 8.0 0.00 0.00 0.00 60 1023.4
20260902181713 19 313 0.0 6.4 0.00 0.00 0.00 57 1023.2
20260902180707 20 71 0.0 4.8 0.00 0.00 0.00 57 1023.2
20260902180219 20 50 0.0 4.8 0.00 0.00 0.00 57 1023.2
20260902175723 20 83 0.0 4.8 0.00 0.00 0.00 58 1023.2
20260902175226 20 330 0.0 17.7 0.00 0.00 0.00 57 1023.1
20260902174227 20 328 3.2 17.7 0.00 0.00 0.00 56 1023.0
20260902173714 20 334 0.0 0.0 0.00 0.00 0.00 56 1023.0
20260902173220 20 333 0.0 0.0 0.00 0.00 0.00 58 1022.8
20260902172722 20 66 0.0 0.0 0.00 0.00 0.00 56 1022.8
20260902172214 20 317 0.0 0.0 0.00 0.00 0.00 57 1022.7
20260902171712 21 344 0.0 0.0 0.00 0.00 0.00 57 1022.8
20260902171220 21 342 0.0 0.0 0.00 0.00 0.00 56 1022.7
20260902170719 21 310 0.0 0.0 0.00 0.00 0.00 55 1022.7
20260902170247 21 310 0.0 0.0 0.00 0.00 0.00 53 1022.7
20260902165715 21 292 0.0 0.0 0.00 0.00 0.00 52 1022.7
20260902165228 22 63 0.0 0.0 0.00 0.00 0.00 49 1022.6
20260902164721 22 24 0.0 0.0 0.00 0.00 0.00 49 1022.6
20260902164211 22 16 0.0 0.0 0.00 0.00 0.00 49 1022.5
20260902163210 22 169 0.0 17.7 0.00 0.00 0.00 47 1022.6
20260902162723 22 90 3.2 17.7 0.00 0.00 0.00 46 1022.7
20260902161716 22 58 1.6 14.5 0.00 0.00 0.00 47 1022.7
20260902161212 23 113 1.6 14.5 0.00 0.00 0.00 45 1022.7
20260902160711 23 197 1.6 14.5 0.00 0.00 0.00 45 1022.7
20260902160245 23 156 1.6 19.3 0.00 0.00 0.00 44 1022.6
20260902155722 23 142 3.2 29.0 0.00 0.00 0.00 45 1022.7
20260902154724 22 196 9.7 24.1 0.00 0.00 0.00 45 1022.8
20260902154220 22 340 6.4 24.1 0.00 0.00 0.00 46 1022.6
20260902153211 22 0 4.8 20.9 0.00 0.00 0.00 44 1022.7
20260902151732 22 25 4.8 17.7 0.00 0.00 0.00 43 1022.8
20260902151218 22 79 6.4 17.7 0.00 0.00 0.00 42 1022.7
20260902150716 23 70 4.8 17.7 0.00 0.00 0.00 41 1022.7
20260902150223 23 19 3.2 17.7 0.00 0.00 0.00 42 1022.6
20260902145709 23 234 6.4 17.7 0.00 0.00 0.00 40 1022.6
20260902145228 23 297 6.4 17.7 0.00 0.00 0.00 40 1022.6
20260902144728 23 314 3.2 20.9 0.00 0.00 0.00 41 1022.7
20260902144221 23 334 6.4 20.9 0.00 0.00 0.00 40 1022.6
20260902143722 23 340 6.4 20.9 0.00 0.00 0.00 40 1022.8
20260902143229 23 295 4.8 12.9 0.00 0.00 0.00 39 1022.7
20260902142716 23 343 4.8 12.9 0.00 0.00 0.00 40 1022.7
20260902142229 23 302 4.8 17.7 0.00 0.00 0.00 36 1022.8
20260902141716 23 320 3.2 17.7 0.00 0.00 0.00 37 1022.8
20260902141217 23 333 6.4 22.5 0.00 0.00 0.00 36 1022.8
20260902140726 23 22 8.0 22.5 0.00 0.00 0.00 35 1022.7
20260902140224 23 124 9.7 25.7 0.00 0.00 0.00 36 1022.7
20260902135213 23 323 8.0 25.7 0.00 0.00 0.00 39 1022.7
20260902134712 23 5 6.4 19.3 0.00 0.00 0.00 38 1022.8
20260902134216 23 299 4.8 19.3 0.00 0.00 0.00 37 1022.7
20260902133706 24 342 4.8 19.3 0.00 0.00 0.00 35 1022.7
20260902133225 24 314 3.2 20.9 0.00 0.00 0.00 34 1022.7
20260902132712 24 79 3.2 20.9 0.00 0.00 0.00 35 1022.7
20260902131224 23 292 1.6 14.5 0.00 0.00 0.00 34 1023.0
20260902130719 23 254 3.2 16.1 0.00 0.00 0.00 33 1023.0
20260902125727 23 62 8.0 22.5 0.00 0.00 0.00 36 1023.0
20260902125235 23 344 11.3 22.5 0.00 0.00 0.00 35 1023.0
20260902124711 23 278 8.0 17.7 0.00 0.00 0.00 37 1023.1
20260902124210 23 328 6.4 22.5 0.00 0.00 0.00 42 1023.2
20260902123718 23 326 6.4 22.5 0.00 0.00 0.00 41 1023.1
20260902123218 23 102 8.0 22.5 0.00 0.00 0.00 41 1023.1
20260902122720 23 348 8.0 19.3 0.00 0.00 0.00 42 1023.0
20260902122224 23 298 8.0 19.3 0.00 0.00 0.00 44 1023.0